[[{"header":{"parameterUnit":"m.s-1","parameterCategory":1,"la1":30.2991,"la2":30.254,"lo1":-89.0895,"lo2":-89.0444,"dy":0.0017,"dx":0.0017,"nx":28,"ny":28,"refTime":"2025-05-28T21:00:00:Z","depth":0,"parameterNumber":2,"parameterNumberName":"U-component_of_WINDS"},"data":[0,0,0,0,0,0,0,0,0,0,0,0,0,0,0,0,0,0,0,0,0,0,0,0,0,0,0,0,0,0,0,0,0,0,0,0,0,0,0,0,0,0,0,0,0,0,0,0,0,0,0,0,0,0,0,0,0,0,1.2896,1.2897,0,1.304,1.3041,1.3043,1.3079,1.3078,1.3077,1.3076,1.3228,1.3232,1.3237,0,0,0,0,0,0,0,0,0,0,0,0,0,1.2656,1.266,1.2896,1.2898,1.2899,1.3039,1.3041,1.3043,1.3079,1.3078,1.3076,1.3075,1.3226,1.3232,1.3238,0,0,0,0,0,0,0,0,0,0,0,0,0,1.2776,1.2662,1.2895,1.2934,1.2939,1.3039,1.3041,1.3044,1.3079,1.3078,1.3076,1.3075,1.3224,1.3231,1.3239,1.3312,0,0,1.3261,1.3264,0,0,0,0,0,0,0,0,1.2769,1.2785,1.2926,1.2931,1.2937,1.304,1.3013,1.3134,1.3079,1.3026,1.3076,1.3074,1.3167,1.3179,1.3209,1.3319,1.3326,1.3262,1.3266,1.3269,1.3271,0,0,0,0,0,0,0,1.2761,1.2779,1.2953,1.2928,1.2935,1.2945,1.2961,1.3036,1.3103,1.303,1.3033,1.305,1.3169,1.3202,1.3213,1.3328,1.3262,1.3268,1.3273,1.3276,1.3507,1.3508,0,0,0,0,0,0,1.2745,1.2772,1.2948,1.2957,1.2848,1.2951,1.2968,1.3008,1.3102,1.3115,1.3051,1.3051,1.319,1.3204,1.3218,1.331,1.3269,1.3276,1.328,1.3505,1.3507,1.3509,0,0,0,0,0,0,1.274,1.2761,1.2942,1.2865,1.2889,1.2956,1.3001,1.3012,1.3044,1.3117,1.3129,1.3071,1.3189,1.3208,1.3288,1.3316,1.328,1.3286,1.3503,1.3506,1.3508,1.3494,0,0,0,0,0,0,1.2733,1.2759,1.2786,1.2866,1.2893,1.3009,1.3003,1.3016,1.3056,1.3058,1.314,1.3152,1.3189,1.3277,1.3296,1.3325,1.3292,1.3501,1.3504,1.3507,1.3493,1.3496,1.3499,0,0,0,0,0,1.2724,1.2778,1.2787,1.2809,1.2929,1.301,1.3026,1.3067,1.3058,1.3087,1.3134,1.3149,1.331,1.3285,1.3306,1.3338,1.3499,1.3503,1.3507,1.3491,1.3496,1.3499,0,0,0,0,0,0,1.2701,1.2789,1.2801,1.2881,1.2938,1.3016,1.3054,1.307,1.3132,1.3131,1.3181,1.3199,1.3276,1.3316,1.3286,1.3415,1.3405,1.3413,1.3386,1.339,1.3393,1.3382,1.3298,0,0,0,0,0,1.2705,1.2763,1.2837,1.2901,1.2928,1.2986,1.3023,1.305,1.3111,1.3136,1.3189,1.3249,1.3313,1.3354,1.3417,1.3499,1.3518,1.3532,1.3535,1.3538,1.3544,1.359,1.3597,1.3522,1.3522,1.3522,0,0,1.2715,1.277,1.2803,1.2897,1.2944,1.3004,1.3006,1.3069,1.3114,1.3146,1.3224,1.3265,1.3336,1.3417,1.3456,1.3453,1.3569,1.3543,1.3544,1.3549,1.3594,1.3602,1.3608,1.3524,1.3524,1.3523,0,0,1.2762,1.2809,1.2867,1.2914,1.2985,1.3023,1.3037,1.3113,1.3141,1.322,1.3245,1.33,1.341,1.3459,1.3498,1.3564,1.358,1.3583,1.36,1.3644,1.365,1.3655,1.3678,1.3686,1.359,1.359,1.359,0,1.2764,1.2853,1.2895,1.2956,1.2997,1.3028,1.3087,1.3132,1.322,1.3248,1.3243,1.3381,1.3431,1.3523,1.3539,1.3571,1.3588,1.3573,1.3646,1.3652,1.3657,1.368,1.3688,1.3589,1.3589,1.3589,1.3589,0,1.2853,1.2914,1.2953,1.3035,1.3081,1.3141,1.3193,1.3235,1.3258,1.3297,1.3378,1.3439,1.3514,1.3539,1.3563,1.3635,1.3631,1.3635,1.3626,1.3663,1.3685,1.3694,1.3589,1.3589,1.3589,1.3589,0,0,1.2888,1.2993,1.3006,1.3044,1.3124,1.3173,1.3236,1.3308,1.3343,1.3403,1.3457,1.3549,1.3553,1.3598,1.3628,1.3667,1.3714,1.3666,1.3669,1.3672,1.3797,1.3792,1.3801,1.3726,1.3727,1.3729,1.3791,0,1.2944,1.3053,1.3093,1.3184,1.3242,1.3272,1.3326,1.3382,1.3421,1.3476,1.352,1.3583,1.3585,1.3612,1.3652,1.3699,1.3739,1.3696,1.3776,1.3779,1.3756,1.3813,1.3808,1.3864,1.38,1.3801,1.3802,0,1.3023,1.3082,1.3178,1.3251,1.3277,1.3325,1.3394,1.3447,1.3512,1.3537,1.3587,1.3614,1.3681,1.3669,1.3763,1.3732,1.3768,1.3796,1.38,1.3808,1.3792,1.3822,1.3883,1.389,1.3816,1.3815,1.3814,0,1.3037,1.3142,1.3212,1.3244,1.3332,1.3364,1.3403,1.3466,1.3507,1.3569,1.3596,1.3666,1.3703,1.3757,1.3803,1.3789,1.3892,1.3884,1.3916,1.3914,1.3935,1.3933,1.4001,1.396,1.396,1.396,1.3959,0,1.3094,1.3151,1.322,1.3263,1.3329,1.3375,1.3439,1.348,1.3536,1.3588,1.362,1.367,1.3727,1.3784,1.3821,1.3893,1.391,1.3933,1.3942,1.393,1.3926,1.3953,1.3949,1.3962,1.3961,1.3961,1.396,0,1.312,1.3168,1.3247,1.3324,1.3344,1.3389,1.3455,1.3499,1.3539,1.3606,1.3624,1.3687,1.3756,1.3807,1.3897,1.3922,1.3998,1.4008,1.3975,1.398,1.4008,1.4004,1.4095,1.4109,1.4059,1.4059,1.406,0,1.3153,1.3197,1.3278,1.3315,1.3352,1.3412,1.3453,1.3501,1.3544,1.3621,1.3656,1.3727,1.3785,1.3894,1.3949,1.4018,1.4029,1.4056,1.404,1.4026,1.4028,1.4025,1.4029,1.4058,1.4058,1.4059,1.4059,0,1.3205,1.3226,1.3284,1.3351,1.3399,1.3454,1.351,1.3539,1.3597,1.3644,1.3713,1.3759,1.385,1.392,1.3994,1.4036,1.4057,1.4064,1.4074,1.4061,1.404,1.4051,1.398,1.4061,1.4061,1.4061,1.406,1.406,1.3234,1.3275,1.3338,1.3402,1.3448,1.35,1.3545,1.359,1.3649,1.3725,1.3751,1.3823,1.3888,1.3989,1.4032,1.409,1.409,1.4105,1.4109,1.4112,1.4111,1.4032,1.4104,1.4104,1.4104,1.4104,1.4104,0,1.3287,1.3329,1.3387,1.3463,1.3514,1.3529,1.3591,1.3633,1.3695,1.3753,1.381,1.3891,1.3959,1.4019,1.4091,1.4126,1.4137,1.4143,1.414,1.4149,1.4107,1.409,1.4132,1.4132,1.4132,1.4132,1.4132,1.4132,1.332,1.3389,1.3418,1.3512,1.3554,1.3624,1.3658,1.3707,1.3753,1.3841,1.3897,1.3935,1.3995,1.4071,1.4134,1.415,1.4175,1.4177,1.4196,1.4156,1.4152,1.4149,1.4133,1.4183,1.4183,1.4233,1.4233,1.4234]},{"header":{"parameterUnit":"m.s-1","parameterCategory":1,"la1":30.2991,"la2":30.254,"lo1":-89.0895,"lo2":-89.0444,"dy":0.0017,"dx":0.0017,"nx":28,"ny":28,"refTime":"2025-05-28T21:00:00:Z","depth":0,"parameterNumber":3,"parameterNumberName":"V-component_of_WINDS"},"data":[0,0,0,0,0,0,0,0,0,0,0,0,0,0,0,0,0,0,0,0,0,0,0,0,0,0,0,0,0,0,0,0,0,0,0,0,0,0,0,0,0,0,0,0,0,0,0,0,0,0,0,0,0,0,0,0,0,0,2.7064,2.7066,0,2.7214,2.7216,2.7218,2.7236,2.7234,2.7233,2.7231,2.7384,2.7389,2.7395,0,0,0,0,0,0,0,0,0,0,0,0,0,2.6791,2.6796,2.7064,2.7066,2.7068,2.7214,2.7216,2.7218,2.7236,2.7234,2.7233,2.7231,2.7382,2.7389,2.7395,0,0,0,0,0,0,0,0,0,0,0,0,0,2.6923,2.6798,2.7064,2.7094,2.7099,2.7214,2.7216,2.7219,2.7236,2.7234,2.7232,2.723,2.738,2.7388,2.7396,2.7491,0,0,2.7421,2.7425,0,0,0,0,0,0,0,0,2.6915,2.6933,2.7088,2.7093,2.7098,2.7204,2.7176,2.731,2.7237,2.7184,2.7231,2.7229,2.7326,2.7338,2.7371,2.7498,2.7504,2.7422,2.7427,2.743,2.7433,0,0,0,0,0,0,0,2.6906,2.6926,2.7124,2.709,2.7096,2.71,2.7116,2.7202,2.7266,2.7189,2.719,2.7208,2.7328,2.7364,2.7375,2.7507,2.7422,2.7429,2.7434,2.7437,2.7718,2.7721,0,0,0,0,0,0,2.6891,2.6918,2.7119,2.7128,2.6999,2.7107,2.7125,2.7172,2.7265,2.7277,2.721,2.7208,2.7351,2.7366,2.7381,2.7497,2.743,2.7438,2.7443,2.7716,2.7719,2.7722,0,0,0,0,0,0,2.6885,2.6909,2.7113,2.7024,2.705,2.7114,2.7167,2.7176,2.7212,2.7281,2.7292,2.7234,2.735,2.7369,2.7463,2.7503,2.7442,2.7449,2.7713,2.7717,2.772,2.7731,0,0,0,0,0,0,2.6878,2.6907,2.6944,2.7025,2.7055,2.7193,2.7169,2.7181,2.7226,2.7225,2.7307,2.7318,2.7349,2.7451,2.7471,2.7513,2.7455,2.7709,2.7714,2.7719,2.7728,2.7735,2.7741,0,0,0,0,0,2.6868,2.6941,2.6945,2.697,2.7102,2.7195,2.7213,2.7248,2.7229,2.7266,2.7311,2.7315,2.7495,2.7461,2.7484,2.7528,2.7707,2.7713,2.7719,2.7725,2.7734,2.7741,0,0,0,0,0,0,2.6862,2.6952,2.6958,2.7059,2.712,2.7198,2.7246,2.7256,2.7323,2.7319,2.736,2.7378,2.747,2.7509,2.7468,2.7625,2.7599,2.761,2.7596,2.7605,2.7612,2.7601,2.7462,0,0,0,0,0,2.6873,2.6942,2.7016,2.7098,2.7128,2.7182,2.7224,2.7246,2.731,2.7335,2.7386,2.7448,2.7518,2.7564,2.7633,2.7733,2.7751,2.7776,2.7782,2.7788,2.7796,2.7852,2.7864,2.7741,2.774,2.774,0,0,2.6895,2.6953,2.6994,2.7098,2.7148,2.7218,2.7203,2.7278,2.733,2.7346,2.7439,2.7478,2.755,2.7648,2.7693,2.7682,2.7834,2.7795,2.7799,2.7805,2.786,2.7871,2.7881,2.7744,2.7744,2.7743,0,0,2.6972,2.7022,2.7096,2.7146,2.7221,2.7257,2.7275,2.7352,2.7379,2.7472,2.7486,2.7549,2.7669,2.7719,2.7761,2.7857,2.7864,2.7878,2.7914,2.7968,2.7978,2.7986,2.8021,2.8032,2.7886,2.7886,2.7886,0,2.699,2.7096,2.7133,2.7207,2.7253,2.7272,2.7347,2.7393,2.7486,2.7517,2.7504,2.7656,2.7705,2.7815,2.7838,2.7871,2.7893,2.7869,2.7973,2.7983,2.7991,2.8024,2.8037,2.7888,2.7888,2.7887,2.7887,0,2.7115,2.7188,2.7239,2.733,2.7381,2.7455,2.7502,2.755,2.7567,2.7604,2.7699,2.7759,2.784,2.7867,2.7885,2.798,2.7971,2.7965,2.794,2.8004,2.8035,2.8048,2.7889,2.7889,2.7889,2.7888,0,0,2.7192,2.7302,2.732,2.7361,2.7445,2.7503,2.7578,2.7658,2.7697,2.7761,2.7825,2.7927,2.7922,2.7969,2.7992,2.804,2.8112,2.8028,2.803,2.8041,2.822,2.8224,2.8238,2.8117,2.8119,2.8121,2.8214,0,2.7278,2.7412,2.7448,2.7562,2.763,2.7649,2.7714,2.7773,2.7809,2.7872,2.7912,2.7984,2.7972,2.8001,2.8049,2.8093,2.8148,2.8087,2.8176,2.8179,2.8158,2.8255,2.8259,2.8343,2.8227,2.8229,2.823,0,2.7396,2.7463,2.7584,2.766,2.769,2.7748,2.7824,2.7884,2.7951,2.7974,2.8027,2.8046,2.8124,2.8096,2.8204,2.8162,2.82,2.8228,2.8232,2.8241,2.8208,2.8267,2.8371,2.8384,2.825,2.8249,2.8247,0,2.744,2.756,2.7648,2.7683,2.7774,2.7814,2.7854,2.7918,2.7964,2.803,2.8061,2.8135,2.8176,2.8233,2.8271,2.8247,2.8377,2.8351,2.8398,2.8397,2.8424,2.8422,2.8536,2.8449,2.8449,2.8449,2.8449,0,2.7532,2.7605,2.7669,2.7723,2.7806,2.7846,2.7926,2.7966,2.8024,2.8086,2.8107,2.8164,2.8212,2.8276,2.8306,2.8392,2.841,2.8431,2.8438,2.8429,2.8426,2.8455,2.845,2.8452,2.8452,2.8451,2.845,0,2.7594,2.764,2.7737,2.7816,2.7837,2.7894,2.7961,2.8014,2.8051,2.813,2.815,2.8209,2.8285,2.8329,2.8426,2.8446,2.8541,2.8546,2.8519,2.8522,2.8566,2.8561,2.8703,2.8724,2.8622,2.8623,2.8624,0,2.765,2.7707,2.7792,2.7835,2.7875,2.7945,2.7992,2.8033,2.8081,2.8162,2.8205,2.8283,2.8348,2.8469,2.852,2.8594,2.86,2.8645,2.8611,2.86,2.8601,2.8597,2.8603,2.865,2.8651,2.8652,2.8652,0,2.7744,2.7764,2.7831,2.7907,2.7963,2.8024,2.8085,2.8119,2.817,2.8223,2.8302,2.8352,2.8451,2.8528,2.8606,2.8646,2.8658,2.8662,2.8677,2.8669,2.8651,2.8661,2.8534,2.8659,2.8658,2.8658,2.8657,2.8657,2.7805,2.7857,2.7924,2.7999,2.8049,2.8106,2.8159,2.8204,2.827,2.8354,2.8374,2.8457,2.8523,2.8629,2.8671,2.8737,2.8729,2.875,2.8756,2.876,2.8762,2.864,2.8751,2.8751,2.8751,2.8751,2.8751,0,2.79,2.7945,2.8013,2.8098,2.8156,2.8163,2.823,2.8279,2.8352,2.8412,2.8475,2.8566,2.8641,2.8698,2.8774,2.8816,2.8823,2.8835,2.8832,2.8841,2.8764,2.8744,2.8827,2.8827,2.8827,2.8827,2.8827,2.8827,2.7956,2.8044,2.8072,2.8185,2.823,2.8311,2.835,2.8402,2.845,2.8551,2.8613,2.865,2.8709,2.879,2.8859,2.8874,2.8902,2.8912,2.8928,2.8855,2.8847,2.8839,2.882,2.8918,2.8918,2.8999,2.9,2.9001]}]]